Time,TemperatureF,DewpointF,PressureIn,WindDirection,WindDirectionDegrees,WindSpeedMPH,WindSpeedGustMPH,Humidity,HourlyPrecipIn,Conditions,Clouds,dailyrainin,SoftwareType,DateUTC
2013-04-28 00:01:00,55.0,40.0,-100.00,SE,135,5.0,10.0,56,-99.99,,,-99.99,,2013-04-28 07:01:00,
2013-04-28 01:10:00,51.0,40.0,-100.00,NE,55,1.0,9.0,65,-99.99,,,-99.99,,2013-04-28 08:10:00,
2013-04-28 02:01:00,51.0,40.0,-100.00,NE,55,1.0,9.0,65,-99.99,,,-99.99,,2013-04-28 09:01:00,
2013-04-28 02:10:00,48.0,41.0,-100.00,ESE,105,2.0,3.0,76,-99.99,,,-99.99,,2013-04-28 09:10:00,
2013-04-28 03:03:00,48.0,41.0,-100.00,ESE,105,2.0,3.0,76,-99.99,,,-99.99,,2013-04-28 10:03:00,
2013-04-28 03:10:00,47.0,41.0,-100.00,SSE,150,5.0,7.0,79,-99.99,,,-99.99,,2013-04-28 10:10:00,
2013-04-28 04:02:00,47.0,41.0,-100.00,SSE,150,5.0,7.0,79,-99.99,,,-99.99,,2013-04-28 11:02:00,
2013-04-28 06:02:00,47.0,40.0,-100.00,SE,130,7.0,10.0,76,-99.99,,,-99.99,,2013-04-28 13:02:00,
2013-04-28 07:01:00,46.0,40.0,-100.00,SE,135,5.0,10.0,79,-99.99,,,-99.99,,2013-04-28 14:01:00,
2013-04-28 08:01:00,47.0,42.0,-100.00,SE,130,6.0,9.0,82,-99.99,,,-99.99,,2013-04-28 15:01:00,
2013-04-28 09:03:00,49.0,42.0,-100.00,SE,140,6.0,8.0,76,-99.99,,,-99.99,,2013-04-28 16:03:00,
2013-04-28 10:02:00,54.0,44.0,-100.00,SSE,150,6.0,12.0,68,-99.99,,,-99.99,,2013-04-28 17:02:00,
2013-04-28 11:02:00,60.0,42.0,-100.00,South,185,5.0,15.0,51,-99.99,,,-99.99,,2013-04-28 18:02:00,
2013-04-28 12:02:00,60.0,41.0,-100.00,SSE,155,5.0,15.0,49,-99.99,,,-99.99,,2013-04-28 19:02:00,
2013-04-28 13:01:00,58.0,39.0,-100.00,SE,140,13.0,22.0,49,-99.99,,,-99.99,,2013-04-28 20:01:00,
2013-04-28 14:01:00,60.0,38.0,-100.00,SSE,160,13.0,24.0,43,-99.99,,,-99.99,,2013-04-28 21:01:00,
2013-04-28 15:03:00,61.0,39.0,-100.00,SSW,195,7.0,20.0,44,-99.99,,,-99.99,,2013-04-28 22:03:00,
2013-04-28 16:02:00,64.0,39.0,-100.00,SSW,195,10.0,21.0,39,-99.99,,,-99.99,,2013-04-28 23:02:00,
2013-04-28 17:01:00,63.0,39.0,-100.00,SSE,155,6.0,21.0,41,-99.99,,,-99.99,,2013-04-29 00:01:00,
2013-04-28 18:01:00,62.0,37.0,-100.00,SSE,155,12.0,22.0,39,-99.99,,,-99.99,,2013-04-29 01:01:00,
2013-04-28 18:10:00,61.0,36.0,-100.00,SSW,200,6.0,20.0,39,-99.99,,,-99.99,,2013-04-29 01:10:00,
2013-04-28 19:01:00,61.0,36.0,-100.00,SSW,200,6.0,20.0,39,-99.99,,,-99.99,,2013-04-29 02:01:00,
2013-04-28 20:01:00,60.0,38.0,-100.00,South,180,12.0,18.0,43,-99.99,,,-99.99,,2013-04-29 03:01:00,
2013-04-28 21:02:00,58.0,35.0,-100.00,South,170,3.0,10.0,41,-99.99,,,-99.99,,2013-04-29 04:02:00,
2013-04-28 21:10:00,56.0,35.0,-100.00,SSW,205,2.0,10.0,45,-99.99,,,-99.99,,2013-04-29 04:10:00,
2013-04-28 22:02:00,56.0,35.0,-100.00,SSW,205,2.0,10.0,45,-99.99,,,-99.99,,2013-04-29 05:02:00,